This is the latest recevied weather packets stored in our database for station/object OK1UOJ. If no packets are shown the sender has not sent any weather packets the latest 10 day(s).
| Time | Temp. | Humidity | Pressure | Rain* | Wind** | Luminosity | Snow |
|---|---|---|---|---|---|---|---|
| 1777907425 | 25.56° C | 49% | 1013.8 hPa | - | - | - | - |
| 1777907152 | 25.56° C | 49% | 1013.8 hPa | - | - | - | - |
| 1777907151 | 25.56° C | 49% | 1013.8 hPa | - | - | - | - |
| 1777906867 | 26.11° C | 53% | 1013.8 hPa | - | - | - | - |
| 1777906589 | 25.56° C | 54% | 1013.9 hPa | - | - | - | - |
| 1777906315 | 26.11° C | 52% | 1013.9 hPa | - | - | - | - |
| 1777906310 | 26.11° C | 52% | 1013.9 hPa | - | - | - | - |
| 1777905473 | 26.11° C | 55% | 1014 hPa | - | - | - | - |
| 1777904079 | 26.67° C | 55% | 1014.1 hPa | - | - | - | - |
| 1777903804 | 26.67° C | 52% | 1014.2 hPa | - | - | - | - |
| 1777903799 | 26.67° C | 52% | 1014.2 hPa | - | - | - | - |
| 1777903521 | 27.22° C | 50% | 1014.2 hPa | - | - | - | - |
| 1777903241 | 27.22° C | 50% | 1014.2 hPa | - | - | - | - |
| 1777902962 | 27.22° C | 48% | 1014.2 hPa | - | - | - | - |
| 1777902124 | 27.22° C | 46% | 1014.4 hPa | - | - | - | - |
| 1777901286 | 26.11° C | 58% | 1014.5 hPa | - | - | - | - |
| 1777900729 | 25.56° C | 51% | 1014.5 hPa | - | - | - | - |
| 1777900449 | 25.56° C | 53% | 1014.6 hPa | - | - | - | - |
| 1777900171 | 25.56° C | 52% | 1014.6 hPa | - | - | - | - |
| 1777899896 | 26.11° C | 56% | 1014.7 hPa | - | - | - | - |
| 1777899896 | 26.11° C | 56% | 1014.7 hPa | - | - | - | - |
| 1777899891 | 26.11° C | 56% | 1014.7 hPa | - | - | - | - |
| 1777899617 | 25° C | 58% | 1014.7 hPa | - | - | - | - |
| 1777899612 | 25° C | 58% | 1014.7 hPa | - | - | - | - |
| 1777899055 | 24.44° C | 59% | 1014.9 hPa | - | - | - | - |
* Rain since midnight (hover to see other rain measurements)
** Current wind speed in m/s (hover to see current wind gust speed)